User: anonymous   Login
Location: Columbia
(38.9520°N, 92.3340°W)
Time: 07:29:37
(UTC-05:00)
Language:

CZ-4B R/B - Orbit

View from above orbital plane
View from above orbital plane
View from above satellite
View from above satellite

Ground track
Ground track

The orbit data is extracted from the following two-line orbital elements,

1 29093U 06015B   15149.27762477  .00006169  00000-0  18646-3 0  9997
2 29093 097.4947 236.1135 0080177 119.4094 275.5424 15.31424555502402
Epoch (UTC): 29 May 2015 06:39:46
Eccentricity: 0.0080177
inclination: 97.4947°
perigee height: 416 km
apogee height: 526 km
right ascension of ascending node: 236.1135°
argument of perigee: 119.4094°
revolutions per day: 15.31424555
mean anomaly at epoch: 275.5424°
orbit number at epoch: 50240

The dashed part of the orbit path shows where the satellite is in the earth's shadow,  

DLR